Regional Weather Roundup
Issued by NWS

Home | Current Version | Previous Version | Text Only | Print | Product List | Glossary On
Versions: 1 2 3 4 5 6 7 8 9 10 11 12 13 14 15 16 17 18 19 20 21 22 23 24 25 26 27 28 29 30 31 32 33 34 35 36 37 38 39 40 41 42 43 44 45 46 47 48 49 50
000
ASUS44 KOUN 030010
RWROK

WEATHER ROUNDUP FOR OKLAHOMA
NATIONAL WEATHER SERVICE NORMAN OK
600 PM CST FRI DEC 02 2016

NOTE: "FAIR" INDICATES FEW OR NO CLOUDS BELOW 12,000 FEET WITH NO
      SIGNIFICANT WEATHER AND/OR OBSTRUCTIONS TO VISIBILITY.

OKZ001>007-009>012-014-015-017-030100-
NORTHWEST OKLAHOMA AND THE PANHANDLE

CITY           SKY/WX    TMP DP  RH WIND       PRES   REMARKS
GAGE           CLOUDY    48  20  32 NE14      30.15R
6HR MIN TEMP:  48; 6HR MAX TEMP:  54;

GUYMON         CLOUDY    45  13  27 E8        30.17R
ENID/WOODRING  MOCLDY    50  32  50 NE8       30.15S
$$

OKZ016-021>023-033>039-044-045-030100-
SOUTHWEST OKLAHOMA

CITY           SKY/WX    TMP DP  RH WIND       PRES   REMARKS
LAWTON/REGL    LGT RAIN  53  45  74 E9        30.10R
6HR MIN TEMP:  53; 6HR MAX TEMP:  60; 6HR PCP: TRACE;

LAWTON/FT SILL LGT RAIN  52  47  84 E7        30.09R
FREDERICK      LGT RAIN  51  48  89 E15       30.07R
CLINTON        LGT RAIN  46  33  60 NE10      30.14R
HOBART         LGT RAIN  46  37  71 NE12      30.12R
ALTUS AFB      LGT RAIN  47  40  74 NE8       30.10R
$$

OKZ018>020-024>031-030100-
CENTRAL OKLAHOMA

CITY           SKY/WX    TMP DP  RH WIND       PRES   REMARKS
OKLAHOMA CITY  MOCLDY    52  37  56 E7        30.13R
6HR MIN TEMP:  50; 6HR MAX TEMP:  56;

OKC/WILEY POST PTCLDY    52  33  48 NE6       30.14R
OKC/TINKER AFB CLOUDY    54  40  58 E7        30.12R
STILLWATER     CLOUDY    50  32  50 NE7       30.16S
GUTHRIE        PTCLDY    50  34  54 NE6       30.14F
$$

OKZ008-013-054>072-030100-
NORTHEAST OKLAHOMA

CITY           SKY/WX    TMP DP  RH WIND       PRES   REMARKS
TULSA          CLOUDY    55  39  54 NE7       30.17S
6HR MIN TEMP:  55; 6HR MAX TEMP:  61;

TULSA/JONES    PTCLDY    53  37  54 NE5       30.17F
PONCA CITY     MOCLDY    50  27  40 NE9       30.18S
BARTLESVILLE   CLOUDY    51  30  44 N7        30.22S
MUSKOGEE       CLOUDY    55  36  48 E5        30.19F
$$

OKZ032-040>043-046>053-073>077-030100-
SOUTH CENTRAL/SOUTHEAST OKLAHOMA

CITY           SKY/WX    TMP DP  RH WIND       PRES   REMARKS
ARDMORE/DWNTWN MOCLDY    54  36  50 E6        30.11F
MCALESTER      CLOUDY    56  39  53 NE6       30.15F
$$





USA.gov is the U.S. government's official web portal to all federal, state and local government web resources and services.